Temperature
16 15 15 16 17 18 18 18 18 19 21 19 18 18 19 20 21 20 21 21 21 22 21 21 21 20 19 18 17 16 15 14 13 12 12 11 11 11 10 10 10 10 10 9
16 15 17 18 18 18 18 17 18 19 20 19 18 18 19 19 19 21 21 21 21 21 21 21 21 20 19 18 17 16 15 14 13 13 12 12 12 11 11 10 10 10 10 10
15 16 18 18 18 18 17 17 17 18 18 19 18 17 18 19 20 21 21 21 21 21 21 21 21 20 19 18 17 16 15 14 14 13 12 11 11 10 10 10 10 10 10 10
16 18 18 17 17 18 17 18 18 18 17 16 17 15 17 19 19 19 20 21 21 21 21 21 20 20 19 18 17 16 15 15 14 13 12 11 11 11 11 10 10 10 10 10
16 17 17 17 18 18 17 18 18 17 16 15 16 15 16 19 19 19 19 21 21 21 21 20 20 19 19 18 17 16 15 14 14 13 12 12 11 11 11 10 10 10 10 10
17 18 18 18 18 19 18 18 17 16 15 14 15 15 16 18 19 20 20 21 21 20 20 20 19 19 18 17 16 15 15 14 14 13 12 12 11 11 10 10 10 10 10 10
15 16 18 18 17 18 17 16 14 13 12 13 16 16 16 19 20 20 20 20 20 20 19 19 18 17 17 16 16 15 14 14 14 13 12 12 11 11 11 11 11 10 10 10
14 14 16 17 17 16 16 16 14 13 13 15 16 16 17 20 20 21 21 20 20 19 18 18 17 17 16 16 15 14 14 14 14 13 12 11 11 11 10 11 11 11 11 11
14 15 17 17 17 17 16 15 16 15 15 14 16 17 19 20 19 19 19 19 19 18 18 17 16 16 15 15 14 14 13 13 13 13 12 11 11 10 10 10 10 10 10 10
15 15 16 16 16 16 17 16 15 14 13 12 14 16 17 18 18 18 18 18 19 18 17 16 16 15 14 14 13 13 13 13 13 12 12 11 11 10 10 10 10 10 10 10
14 14 15 15 15 15 15 15 15 14 13 13 13 15 19 18 19 18 18 19 19 18 17 16 15 14 14 13 12 12 12 12 12 12 11 11 11 10 10 10 10 10 10 10
13 13 13 14 15 16 16 15 15 13 13 14 14 15 20 19 19 18 18 19 18 18 17 16 15 14 13 13 12 12 11 11 11 11 11 11 10 10 10 10 10 10 10 10
12 11 11 12 12 14 14 15 16 15 14 14 14 15 18 18 18 19 19 18 18 17 16 16 15 14 13 13 12 11 11 11 11 11 11 10 10 10 10 10 10 10 10 10
12 11 11 11 12 12 13 14 15 15 14 13 14 16 17 18 18 18 18 19 18 17 16 15 15 14 13 12 12 11 11 11 11 11 10 10 10 10 10 10 10 10 10 10
10 10 11 12 13 14 13 13 14 14 14 14 14 15 17 17 17 18 19 19 18 17 16 16 15 14 13 12 12 11 11 11 11 11 11 10 10 10 10 10 10 10 9 9
9 9 10 11 13 14 13 14 14 14 14 15 15 15 17 18 18 18 19 19 18 17 17 16 15 15 14 13 12 12 12 11 11 11 11 10 10 10 10 9 9 9 9 9
7 8 9 9 11 12 11 13 13 14 14 14 14 15 17 17 17 17 19 19 18 18 17 17 16 15 14 14 13 12 12 12 11 11 11 10 10 9 9 9 9 9 9 8
6 7 8 8 10 9 11 14 14 14 14 15 15 16 16 17 18 19 19 18 18 18 17 17 16 16 15 14 13 12 12 11 11 11 10 10 9 9 9 9 8 8 8 8
8 7 7 7 8 9 12 13 14 14 14 15 15 15 16 17 17 17 18 18 18 18 17 17 16 16 15 14 13 13 12 11 11 11 10 10 10 9 9 9 8 8 8 8
8 8 7 7 7 8 12 14 14 14 13 15 15 15 15 15 14 14 17 17 17 17 17 16 16 16 15 14 14 13 12 11 11 11 10 10 9 9 9 9 8 8 7 7
7 7 6 6 7 9 12 13 13 12 12 14 15 15 15 14 15 16 17 17 16 16 16 16 15 15 14 14 13 12 12 11 11 10 9 9 9 8 8 8 7 7 7 6
6 6 6 7 7 8 12 12 12 12 14 15 15 16 15 15 15 16 16 16 15 15 15 15 14 14 13 13 13 12 11 11 10 9 9 8 8 7 7 7 7 6 6 5
7 7 7 7 9 11 12 12 13 14 14 14 15 15 15 15 15 15 15 15 14 14 14 14 13 13 12 12 12 12 11 10 9 9 8 8 7 7 6 6 6 5 5 5
7 8 8 8 9 10 11 12 13 13 13 13 14 14 14 14 14 14 14 14 14 13 13 13 12 12 12 11 11 11 10 10 9 8 8 7 6 6 5 5 5 5 4 4
6 6 7 8 9 10 11 11 12 12 12 13 13 13 14 14 13 13 13 13 13 12 12 12 12 12 11 11 10 10 9 9 8 8 7 6 6 5 5 4 4 4 4 4
6 6 7 8 9 9 10 11 12 12 11 12 12 12 13 13 13 13 12 12 12 12 12 11 11 11 10 10 9 9 8 8 8 7 6 6 5 5 4 4 3 3 3 3
Wind_Speed
13 12 17 18 19 16 13 12 11 10 7 9 11 13 13 12 11 12 12 12 12 12 11 11 12 13 13 13 15 17 17 17 14 13 12 11 10 9 8 9 14 15 14 14
14 22 21 17 17 18 18 17 14 10 6 6 10 13 12 13 13 13 13 13 12 12 11 10 11 13 14 15 15 17 19 18 16 13 12 10 10 8 8 7 11 14 14 14
27 18 19 20 19 19 19 17 15 11 9 9 10 13 14 14 15 15 14 14 13 13 12 10 11 12 13 15 16 16 18 18 17 14 11 9 8 7 6 8 8 10 14 14
22 22 19 21 21 19 18 15 13 11 10 9 8 11 11 11 12 12 13 12 12 11 11 10 11 13 14 15 14 14 16 17 16 16 15 16 13 9 8 9 7 8 12 13
15 19 21 22 22 19 14 9 10 10 10 12 12 11 9 10 12 11 11 10 9 9 9 9 10 12 12 12 13 13 14 16 16 17 17 16 12 9 8 9 10 9 8 11
18 15 18 19 15 14 11 8 7 7 7 13 15 12 9 9 10 8 8 7 7 6 6 6 8 10 10 10 11 12 13 15 16 17 17 17 15 13 13 12 12 10 7 7
21 20 17 13 14 13 12 9 6 7 8 10 10 11 9 9 8 8 7 6 5 5 6 6 8 10 11 12 12 12 14 15 17 18 18 18 16 15 15 13 12 11 8 7
19 19 19 15 16 13 16 16 11 8 7 6 9 12 8 7 7 7 6 5 5 6 6 7 8 10 11 12 13 13 14 14 17 18 17 16 15 12 11 12 11 11 9 8
15 16 16 16 14 15 17 18 15 9 8 7 7 7 9 8 6 7 7 7 7 6 7 8 8 9 11 12 13 13 14 14 16 16 15 15 15 13 11 12 11 10 9 9
10 12 13 15 12 17 16 13 8 10 8 9 9 12 9 9 10 9 8 7 7 7 7 8 8 9 10 11 10 11 12 13 13 14 14 12 13 12 12 12 12 12 11 11
17 12 9 13 19 22 16 17 10 8 8 7 7 7 8 11 10 10 8 7 8 8 7 8 8 8 9 10 11 11 12 12 13 14 13 12 12 12 12 12 12 12 11 13
14 9 10 11 12 13 17 20 18 14 10 10 9 8 2 3 6 7 7 7 7 8 7 8 8 9 9 11 12 12 12 12 13 13 13 12 11 12 12 12 12 12 13 13
10 7 8 8 8 12 14 18 20 17 12 10 12 9 7 6 6 7 7 7 7 8 8 8 8 9 10 11 12 12 12 12 12 13 13 12 12 13 12 12 12 12 13 12
9 7 11 13 8 11 15 17 18 18 16 17 18 15 7 7 7 8 8 8 8 9 9 8 9 9 9 10 11 11 12 12 12 13 13 13 13 13 12 12 12 12 13 13
4 9 11 13 11 11 16 18 21 23 21 17 18 19 16 10 9 8 9 9 8 8 9 10 9 9 10 10 11 11 11 12 12 12 12 12 11 11 11 11 12 12 12 12
2 6 10 14 14 12 13 18 20 23 22 23 19 20 13 10 8 8 8 8 9 8 9 9 10 10 11 11 12 11 11 11 12 12 11 11 11 11 12 12 12 12 11 11
4 5 7 10 12 11 15 18 19 19 20 20 24 22 12 12 11 10 9 8 8 8 9 9 10 10 10 11 11 12 11 11 11 11 11 12 12 12 12 12 12 12 12 11
11 11 6 6 8 13 12 11 16 19 19 19 19 14 13 12 10 9 8 8 8 8 8 9 8 9 8 9 10 10 10 11 11 11 11 11 12 12 12 12 12 11 10 11
17 14 7 5 8 9 8 10 14 17 20 19 18 16 13 10 8 9 9 9 8 7 7 7 8 8 9 9 11 11 11 11 11 12 12 12 12 12 12 13 12 9 9 9
15 14 9 8 8 10 9 9 8 9 16 15 16 16 12 11 12 12 7 7 6 6 5 6 7 8 9 9 11 12 11 12 12 12 11 11 12 12 12 12 10 8 8 8
10 10 14 12 9 9 8 6 7 10 10 7 13 13 11 13 13 7 8 6 6 6 7 7 8 8 8 9 11 11 10 11 10 9 9 10 10 10 10 9 8 8 8 8
9 8 11 11 9 10 6 7 9 6 4 3 5 8 10 10 7 7 8 8 8 7 7 8 8 7 7 9 11 10 9 9 9 10 10 10 9 8 8 9 8 8 9 8
9 9 6 8 9 4 5 6 6 3 3 2 2 3 4 6 7 7 8 8 8 8 8 7 8 8 7 7 9 10 9 10 11 10 10 9 9 8 8 8 8 8 7 7
6 7 7 7 9 8 6 5 4 3 2 2 1 1 3 5 6 7 8 8 8 8 8 8 9 9 7 7 8 9 9 10 11 10 9 9 8 7 7 6 7 7 7 7
8 6 9 10 7 7 8 6 6 4 2 1 1 0 3 5 6 7 7 8 8 8 7 8 9 9 9 8 9 9 10 10 10 9 8 8 7 7 6 5 5 6 6 8
10 10 11 11 8 7 8 8 7 5 4 3 2 1 1 4 6 6 7 7 8 9 8 8 9 10 9 9 9 9 9 10 10 9 8 6 6 5 5 5 3 3 4 6
Wind_Direction
194 207 213 212 216 231 248 250 245 246 225 212 227 241 246 245 247 246 241 239 238 237 228 206 190 179 175 175 176 176 178 180 177 179 179 180 181 176 172 173 179 181 180 177
199 217 218 216 219 224 237 250 259 268 258 244 253 256 255 247 244 243 243 242 240 238 231 213 191 179 177 179 180 179 179 180 181 181 180 178 174 173 172 170 177 178 175 173
214 214 212 220 222 223 228 233 243 255 275 263 267 266 254 250 242 241 240 239 239 235 228 213 195 185 178 181 183 183 181 180 180 173 170 168 163 160 167 173 175 175 175 174
223 224 212 215 223 221 230 226 237 248 257 261 255 274 256 252 246 236 233 232 232 230 225 212 197 186 183 184 181 180 178 177 177 172 176 176 179 178 176 173 171 173 175 173
219 214 218 220 218 218 227 221 230 237 248 260 256 267 260 237 240 234 229 225 225 224 218 209 195 184 180 174 172 176 175 175 175 177 179 181 182 179 164 164 168 173 172 169
234 223 217 222 221 217 212 209 235 245 244 249 236 240 263 227 229 228 218 214 212 205 198 193 179 169 167 162 164 170 175 176 177 180 182 185 183 177 171 171 173 173 169 169
231 234 227 215 214 208 197 189 207 213 220 239 212 226 247 220 217 216 213 212 195 188 178 181 174 170 166 164 167 173 176 177 179 183 186 188 186 183 178 174 174 171 169 171
214 222 219 218 215 203 199 197 199 202 214 228 201 224 239 217 199 194 193 193 195 191 181 181 180 172 168 168 171 176 180 180 180 185 188 188 186 185 181 176 172 173 173 172
209 220 203 205 209 209 202 209 219 246 272 275 240 228 227 214 201 199 195 196 198 194 184 180 178 170 168 172 177 180 181 180 182 185 186 186 185 183 177 172 167 169 166 166
234 227 206 197 195 219 215 198 201 217 228 241 251 247 240 215 206 207 197 193 190 182 178 175 175 173 170 172 174 177 180 182 181 183 185 184 183 179 173 169 170 168 164 162
239 239 212 192 197 202 203 205 195 199 221 222 236 238 224 212 199 188 181 173 168 172 174 174 173 171 166 166 171 178 182 181 181 182 181 179 179 175 170 171 169 165 161 161
224 236 228 220 211 208 207 209 202 202 207 216 240 253 247 160 158 158 157 151 150 158 164 167 167 165 167 171 176 181 184 183 181 180 179 178 175 170 170 169 166 161 162 164
221 223 213 204 216 215 217 214 213 216 226 227 226 242 213 201 176 159 160 165 161 161 164 166 168 173 177 176 179 182 184 183 179 177 178 176 172 170 171 169 165 163 163 164
223 216 219 213 205 199 212 219 218 216 224 232 235 239 227 197 187 180 178 182 176 172 172 175 178 181 181 178 179 181 183 180 176 176 177 176 174 173 172 167 165 164 163 165
214 225 235 244 240 208 212 216 219 222 223 225 232 235 237 228 217 206 195 190 188 180 181 186 184 185 181 179 180 181 182 178 173 172 175 176 171 168 166 166 165 162 163 167
271 231 241 247 245 244 236 223 221 226 228 233 241 244 238 242 231 224 215 201 199 197 189 187 183 184 184 183 182 180 179 174 170 173 175 170 168 167 167 165 162 160 162 163
247 236 231 240 242 246 240 227 223 227 229 229 236 241 239 247 245 234 223 217 208 202 190 184 185 188 187 185 179 178 173 165 167 171 170 169 167 167 166 162 161 164 166 164
232 235 234 235 223 228 235 223 225 230 233 229 236 239 230 235 240 234 223 222 224 204 187 181 179 182 179 172 168 163 160 162 165 168 169 168 166 165 163 164 167 167 167 170
222 219 219 221 225 246 246 220 214 222 236 229 234 236 231 234 252 250 229 217 210 196 180 175 172 170 164 162 160 156 159 161 165 171 172 169 166 166 167 171 171 168 168 174
220 211 206 212 215 224 232 207 202 210 245 229 228 233 224 207 230 240 208 198 188 169 158 156 152 147 152 156 151 155 161 165 174 174 169 164 165 167 171 172 168 165 168 173
207 207 207 211 220 242 247 209 164 196 236 227 223 228 217 214 224 205 168 172 162 152 145 137 135 140 149 148 148 156 161 171 167 153 150 155 160 163 164 163 162 163 164 165
207 206 207 206 212 229 214 179 188 222 258 245 229 223 216 216 203 166 156 146 140 137 131 131 130 132 135 142 147 152 159 151 139 140 146 150 152 154 156 159 162 163 163 166
209 202 200 209 222 244 195 209 221 218 242 257 260 264 204 189 181 164 154 147 146 142 137 130 130 128 128 136 143 147 145 135 135 138 142 144 144 148 154 159 162 162 163 167
240 217 218 231 239 250 247 244 242 255 260 270 263 244 183 171 163 158 154 152 149 144 140 136 133 132 130 128 127 133 132 132 133 138 139 141 145 149 152 157 161 165 171 173
253 244 241 244 243 230 229 234 245 266 294 328 353 250 182 159 156 158 156 155 151 145 142 142 142 139 135 126 121 124 129 131 133 134 136 139 145 150 152 154 164 170 182 183
242 237 231 243 233 233 242 237 240 235 243 232 213 208 190 167 162 154 152 150 145 142 139 137 136 134 132 127 124 125 128 132 135 137 140 144 146 146 146 143 126 123 161 178
Height
1459 1463 1461 1459 1461 1462 1462 1462 1463 1458 1454 1459 1462 1462 1459 1458 1458 1457 1457 1458 1458 1459 1460 1462 1464 1466 1469 1473 1476 1480 1483 1487 1492 1496 1500 1504 1508 1512 1516 1520 1523 1526 1529 1532
1454 1452 1449 1452 1454 1457 1459 1462 1461 1457 1453 1456 1459 1457 1452 1450 1450 1450 1450 1450 1451 1452 1453 1455 1457 1459 1461 1465 1469 1473 1476 1480 1485 1489 1493 1498 1503 1508 1512 1516 1519 1523 1526 1528
1440 1438 1443 1446 1449 1452 1454 1458 1459 1460 1456 1453 1458 1457 1450 1443 1442 1442 1442 1442 1443 1444 1446 1447 1449 1451 1454 1458 1462 1466 1469 1474 1479 1484 1489 1495 1500 1505 1508 1511 1515 1518 1522 1525
1433 1432 1435 1439 1441 1444 1449 1448 1452 1456 1462 1463 1459 1463 1447 1439 1435 1433 1433 1434 1434 1436 1438 1440 1442 1444 1447 1451 1455 1460 1464 1468 1473 1478 1482 1487 1491 1495 1499 1504 1509 1514 1517 1521
1422 1423 1427 1430 1431 1436 1441 1443 1448 1452 1459 1463 1459 1462 1445 1433 1432 1428 1426 1426 1427 1429 1431 1432 1435 1437 1440 1444 1449 1454 1459 1463 1467 1472 1476 1481 1486 1490 1496 1501 1505 1509 1513 1516
1414 1414 1417 1420 1424 1429 1434 1442 1447 1451 1457 1465 1454 1458 1443 1430 1424 1421 1420 1420 1422 1423 1425 1427 1429 1431 1435 1439 1443 1448 1453 1457 1461 1466 1471 1476 1480 1486 1490 1495 1499 1504 1508 1512
1414 1411 1410 1413 1421 1425 1431 1445 1461 1466 1467 1458 1441 1445 1432 1417 1412 1413 1414 1416 1418 1419 1420 1422 1424 1426 1429 1432 1437 1442 1447 1451 1456 1461 1465 1470 1476 1481 1485 1489 1493 1498 1502 1506
1413 1411 1406 1407 1412 1419 1425 1434 1451 1458 1455 1442 1434 1434 1419 1406 1405 1407 1409 1412 1414 1415 1416 1418 1420 1422 1424 1427 1431 1436 1440 1445 1450 1455 1460 1466 1471 1476 1481 1485 1489 1493 1497 1501
1399 1400 1396 1399 1404 1411 1420 1425 1426 1435 1435 1440 1429 1415 1407 1401 1402 1404 1406 1408 1410 1412 1413 1414 1416 1418 1420 1423 1426 1430 1435 1440 1445 1450 1456 1461 1466 1471 1476 1480 1485 1489 1493 1497
1389 1394 1390 1393 1400 1404 1408 1416 1427 1435 1445 1448 1432 1421 1414 1404 1402 1401 1402 1404 1406 1408 1410 1411 1412 1414 1416 1419 1423 1427 1431 1436 1440 1446 1451 1456 1461 1466 1471 1476 1480 1484 1488 1492
1389 1391 1389 1390 1394 1398 1405 1411 1416 1426 1430 1435 1433 1419 1392 1392 1393 1395 1398 1400 1402 1405 1406 1408 1409 1411 1414 1416 1419 1423 1427 1432 1436 1441 1446 1451 1456 1462 1466 1471 1475 1479 1483 1487
1387 1390 1392 1389 1385 1388 1394 1399 1406 1420 1421 1419 1422 1411 1384 1385 1387 1390 1394 1397 1400 1402 1403 1405 1407 1408 1410 1413 1415 1419 1423 1427 1431 1436 1441 1446 1452 1457 1461 1466 1470 1474 1478 1482
1387 1390 1394 1396 1396 1391 1390 1391 1394 1401 1407 1410 1415 1407 1384 1385 1386 1388 1391 1394 1397 1399 1401 1402 1404 1406 1407 1409 1412 1415 1418 1422 1427 1432 1437 1442 1446 1451 1456 1460 1465 1469 1473 1477
1382 1385 1387 1387 1385 1385 1388 1389 1389 1395 1402 1404 1401 1395 1387 1384 1385 1386 1389 1392 1394 1396 1398 1400 1401 1403 1404 1406 1408 1411 1415 1419 1423 1428 1432 1436 1441 1446 1451 1455 1460 1464 1468 1472
1380 1381 1379 1376 1373 1375 1380 1382 1384 1386 1387 1392 1388 1387 1384 1383 1383 1383 1385 1388 1390 1393 1395 1396 1398 1399 1401 1403 1405 1408 1411 1415 1419 1423 1427 1432 1437 1442 1446 1451 1455 1459 1463 1467
1380 1381 1380 1377 1371 1370 1372 1374 1376 1378 1378 1379 1380 1378 1374 1375 1377 1379 1381 1383 1385 1388 1390 1392 1394 1395 1397 1399 1401 1404 1407 1411 1415 1419 1423 1427 1432 1437 1441 1445 1450 1454 1457 1461
1385 1383 1383 1379 1372 1372 1374 1367 1368 1370 1369 1371 1372 1368 1371 1373 1373 1374 1376 1378 1380 1382 1384 1386 1388 1390 1392 1394 1396 1399 1403 1407 1411 1415 1419 1423 1427 1431 1436 1440 1444 1448 1452 1456
1383 1383 1384 1379 1377 1380 1362 1353 1356 1359 1359 1360 1360 1361 1364 1365 1367 1369 1370 1373 1375 1377 1379 1381 1383 1386 1388 1390 1393 1396 1400 1403 1406 1410 1414 1418 1422 1426 1431 1435 1439 1443 1447 1450
1371 1377 1381 1380 1377 1368 1353 1348 1349 1353 1352 1351 1352 1353 1357 1360 1363 1362 1364 1367 1369 1372 1374 1376 1379 1381 1384 1386 1389 1392 1395 1398 1402 1405 1409 1413 1417 1421 1425 1429 1433 1437 1442 1445
1360 1365 1375 1376 1373 1365 1346 1339 1340 1348 1350 1342 1344 1346 1350 1355 1361 1355 1358 1361 1364 1366 1369 1372 1374 1377 1379 1382 1385 1388 1391 1394 1397 1400 1404 1408 1412 1416 1420 1424 1429 1433 1437 1440
1357 1361 1365 1367 1365 1353 1338 1335 1338 1352 1344 1335 1336 1338 1342 1345 1346 1349 1354 1356 1359 1362 1364 1367 1370 1372 1375 1378 1381 1384 1387 1389 1393 1397 1401 1405 1409 1413 1417 1421 1425 1428 1432 1435
1352 1354 1356 1358 1358 1351 1332 1333 1337 1336 1332 1332 1331 1332 1334 1337 1341 1344 1348 1351 1354 1357 1360 1363 1366 1368 1371 1374 1377 1380 1383 1387 1391 1395 1398 1402 1406 1410 1413 1417 1421 1424 1427 1430
1342 1343 1345 1344 1340 1329 1328 1328 1329 1330 1331 1330 1330 1330 1331 1333 1336 1340 1343 1347 1350 1354 1356 1359 1362 1365 1368 1371 1374 1377 1381 1385 1388 1392 1396 1399 1403 1406 1410 1413 1416 1419 1422 1425
1337 1335 1336 1336 1330 1327 1326 1325 1327 1328 1329 1329 1329 1329 1330 1330 1333 1336 1340 1343 1346 1350 1353 1356 1359 1362 1366 1369 1372 1375 1379 1382 1386 1389 1393 1396 1400 1403 1406 1409 1412 1415 1417 1420
1335 1336 1332 1329 1324 1323 1322 1324 1325 1326 1327 1327 1328 1328 1328 1329 1331 1334 1337 1340 1343 1347 1350 1354 1357 1360 1363 1367 1370 1373 1376 1380 1383 1387 1390 1393 1397 1400 1403 1406 1408 1411 1413 1416
1328 1328 1328 1323 1320 1321 1320 1320 1323 1324 1324 1325 1326 1326 1327 1328 1329 1332 1334 1337 1340 1344 1347 1351 1354 1358 1361 1365 1368 1371 1375 1378 1381 1384 1388 1391 1394 1397 1399 1402 1405 1408 1410 1412